BAW2039 EGKK-KMCO

Flight info

Callsign BAW2039
Flight time N/A
Altitude 36000
Route NOVMA L620 SAM N19 ADKIK DCT PEWBI DCT MOPAT DCT RESNO/M083F360 DCT 55N020W 5430N03000W 5230N04000W 49N050W DCT JOOPY/N0474F360 DCT NANSO/M084F400 DCT LOMPI M202 UKOKA/N0481F400 M202 HOBEE AR6 HIBAC ALYNA4
Aircraft B772/H-SDE2E3FGHIJ5LORVWXY/LB1D1

Departure

Time 2026-04-17 08:46
Airport London Gatwick Airport (EGKK)

Arrival

Time N/A
Airport Orlando International Airport (KMCO)
Time Latitude Longitude Altitude Speed Heading
2026-04-17 08:03 51.15626 -0.16583 204 ft 0 kts 168°
2026-04-17 08:26 51.15636 -0.16586 204 ft 1 kts 168°
2026-04-17 08:26 51.15649 -0.16591 204 ft 2 kts 168°
2026-04-17 08:26 51.15662 -0.16595 204 ft 1 kts 168°
2026-04-17 08:27 51.15674 -0.16599 204 ft 2 kts 168°
2026-04-17 08:27 51.15686 -0.16603 204 ft 2 kts 174°
2026-04-17 08:27 51.15699 -0.16599 204 ft 2 kts 223°
2026-04-17 08:27 51.15706 -0.16583 204 ft 0 kts 257°
2026-04-17 08:28 51.15703 -0.16597 204 ft 4 kts 252°
2026-04-17 08:28 51.15693 -0.16667 204 ft 5 kts 258°
2026-04-17 08:28 51.15689 -0.16698 204 ft 0 kts 258°
2026-04-17 08:28 51.15688 -0.16703 204 ft 0 kts 258°
2026-04-17 08:37 51.15688 -0.16704 204 ft 0 kts 258°
2026-04-17 08:38 51.15684 -0.16732 204 ft 4 kts 258°
2026-04-17 08:38 51.15677 -0.16787 204 ft 7 kts 257°
2026-04-17 08:38 51.15664 -0.16880 204 ft 10 kts 258°
2026-04-17 08:38 51.15648 -0.16995 204 ft 13 kts 257°
2026-04-17 08:39 51.15627 -0.17139 204 ft 15 kts 258°
2026-04-17 08:39 51.15610 -0.17252 204 ft 4 kts 249°
2026-04-17 08:39 51.15584 -0.17302 204 ft 7 kts 215°
2026-04-17 08:39 51.15522 -0.17309 204 ft 10 kts 166°
2026-04-17 08:40 51.15442 -0.17278 204 ft 13 kts 169°
2026-04-17 08:40 51.15351 -0.17250 204 ft 15 kts 168°
2026-04-17 08:40 51.15248 -0.17186 204 ft 15 kts 145°
2026-04-17 08:40 51.15207 -0.17120 204 ft 6 kts 120°
2026-04-17 08:41 51.15199 -0.17058 204 ft 8 kts 89°
2026-04-17 08:41 51.15203 -0.17007 204 ft 3 kts 79°
2026-04-17 08:41 51.15210 -0.16955 204 ft 5 kts 80°
2026-04-17 08:41 51.15212 -0.16933 204 ft 0 kts 80°
2026-04-17 08:44 51.15213 -0.16920 204 ft 3 kts 81°
2026-04-17 08:44 51.15214 -0.16855 204 ft 7 kts 100°
2026-04-17 08:44 51.15182 -0.16792 204 ft 7 kts 164°
2026-04-17 08:44 51.15150 -0.16798 204 ft 3 kts 217°
2026-04-17 08:45 51.15123 -0.16832 204 ft 7 kts 221°
2026-04-17 08:45 51.15111 -0.16870 204 ft 0 kts 258°
2026-04-17 08:45 51.15108 -0.16894 204 ft 9 kts 258°
2026-04-17 08:45 51.15066 -0.17193 204 ft 59 kts 257°
2026-04-17 08:46 51.14960 -0.17967 204 ft 110 kts 257°
2026-04-17 08:46 51.14410 -0.21995 940 ft 162 kts 256°
2026-04-17 08:47 51.14132 -0.23992 1262 ft 176 kts 256°
2026-04-17 08:47 51.13871 -0.25876 1573 ft 187 kts 256°
2026-04-17 08:47 51.13612 -0.27753 1689 ft 208 kts 255°
2026-04-17 08:48 51.13026 -0.31982 2359 ft 233 kts 256°
2026-04-17 08:48 51.12776 -0.33786 2567 ft 245 kts 256°
2026-04-17 08:48 51.12188 -0.38023 3558 ft 247 kts 256°
2026-04-17 08:49 51.11993 -0.39428 3828 ft 250 kts 256°
2026-04-17 08:49 51.10477 -0.46248 4282 ft 257 kts 242°
2026-04-17 08:50 51.10087 -0.47493 4731 ft 254 kts 243°
2026-04-17 08:50 51.08682 -0.51984 6100 ft 252 kts 243°
2026-04-17 08:50 51.08028 -0.54079 6690 ft 253 kts 243°
2026-04-17 08:51 51.07547 -0.55619 7074 ft 255 kts 242°
2026-04-17 08:51 51.06895 -0.57707 7629 ft 256 kts 243°
2026-04-17 08:51 51.05550 -0.62081 8761 ft 258 kts 249°
2026-04-17 08:52 51.05206 -0.63903 9173 ft 259 kts 256°
2026-04-17 08:52 51.04963 -0.65621 9570 ft 260 kts 256°
2026-04-17 08:52 51.04681 -0.67768 10077 ft 260 kts 257°
2026-04-17 08:53 51.03826 -0.74193 11497 ft 263 kts 257°
2026-04-17 08:53 51.03369 -0.77581 12229 ft 265 kts 257°
2026-04-17 08:53 51.03043 -0.79996 12776 ft 265 kts 257°
2026-04-17 08:53 51.02611 -0.83178 13306 ft 272 kts 257°
2026-04-17 08:54 51.01545 -0.91019 13801 ft 308 kts 257°
2026-04-17 08:54 51.01228 -0.93336 13914 ft 318 kts 257°